DELTA 1 DEB, 10708

Orbit data source: Space-Track

DELTA 1 DEB, 10708 is space debris in SSO originally from a launch on Thu, 29 Jul 1976 UTC launched from the Air Force Western Test Range (AFWTR). Debris objects in space refer to the collection of defunct objects orbiting the Earth. Examples of debris include non-operational satellites, rocket bodies, and fragments generated from explosions, collisions, or faulty payload assembly.

Loading next visibility...
Identifier
10708, 1976-077AD
Orbit
SSO
Country
Flag of USUS
Related business
Manufacturer
Unknown
Mission
Spacecraft
Bus & Motor
Unknown
Mass
Unknown
Launch date (UTC)
1976-07-29 (49 years ago)
Launch vehicle
Unknown
Launch site
Air Force Western Test Range (AFWTR)
Object type
Payload
Rocket body
Debris
Shape & HBR
Unknown
Radar Cross Section
Small (<0.1 m²)

Expand to show TLE details & history
Last TLE update: 1 day ago

TLE from 1 day ago
0 DELTA 1 DEB
1 10708U 76077AD  25241.59159669  .00000383  00000-0  22383-2 0  9991
2 10708 101.2144 253.8001 0162305 225.7443 254.7285 12.63174298251020
Epoch: 2025-08-29T14:11Z
TLE epoch observation values (Epoch: 2025-08-29T14:11:53.954Z)
Latitude
59.46322°
Longitude
-97.67393°
Altitude
1,454.989 km
Speed
7.124 km/s
True Right ascension
06h 13m 21s
True Declination
59° 19' 33"
Sunlit
Object was in daylight at epoch
Visualization orbit readout
Latitude
Unknown
Longitude
Unknown
Altitude
Unknown
Speed
Unknown
Apparent Right ascension
Unknown
Apparent Declination
Unknown
Sunlit
N/A
Visualization observer readout
Local Sidereal Time
16:40:14
Azimuth
Unknown
Elevation
Unknown
Doppler factor
Unknown
Orbital elements
Apogee altitude
1,533.73 km
Perigee altitude
1,281.005 km
Semi-major axis
7,785.504 km
Eccentricity
0.01623
Inclination
101.2144°
RAAN
253.8001°
Arg. of periapsis
225.7443°
True anomaly
252.94412°
Mean anomaly
254.7285°
Eccentric anomaly
253.83533°
Mean motion
3.15946 °/min
Orbital period
113.94 mins
BSTAR
0.0022383
Loading maneuver chart data...
Computing Atmospheric mass density...
Loading historical data...
Loading historical data...
Loading historical data...
Loading historical data...
Loading historical data...
Loading historical data...
Loading historical data...

Documentation

Showing up to 5 results
|